Wind_Speed
43 45 46 45 46 46 47 48 48 47 47 48 48 48 47 47 47 47 46 45 45 44 44 43 43 42 41 40 39 39 38 37 36 36 35 34 33 32 31 30 30 30 30 30
44 45 43 43 44 45 46 47 47 47 47 47 48 48 48 47 47 47 47 46 46 45 44 44 43 42 42 41 40 40 39 38 37 37 36 35 34 33 32 31 30 30 30 30
42 42 43 43 43 44 46 47 47 46 47 47 47 48 48 47 47 47 47 46 46 45 44 43 42 42 42 41 41 40 40 39 38 37 37 36 35 34 33 32 31 31 30 30
39 41 44 43 42 43 44 45 46 46 47 47 47 48 48 47 47 47 46 45 45 45 44 43 42 42 42 42 41 41 41 40 39 38 37 36 35 34 33 33 33 32 32 32
38 39 42 44 43 42 43 44 45 46 46 47 47 48 48 47 47 46 45 45 44 44 44 43 43 43 43 42 41 41 41 40 39 39 37 37 36 35 35 35 34 34 33 34
36 39 40 41 41 41 41 42 43 44 45 47 47 48 48 47 46 45 45 44 44 44 43 43 43 43 42 42 41 41 41 40 40 39 38 38 37 36 36 36 36 36 35 35
35 38 39 40 40 41 41 41 41 42 44 47 46 47 48 46 46 45 44 44 44 44 43 42 42 42 41 41 41 42 41 41 40 39 39 38 37 37 37 37 37 37 37 37
33 37 39 39 40 39 40 40 41 41 43 44 44 46 47 46 45 45 44 44 44 44 43 42 42 42 41 41 42 42 42 41 41 40 39 39 38 38 38 38 38 38 38 38
30 34 37 38 38 39 40 40 39 39 40 41 42 43 44 45 45 44 43 43 43 43 43 43 43 42 42 42 42 43 43 42 42 41 41 40 40 40 39 39 39 39 39 39
27 29 34 37 38 40 39 37 38 38 38 40 41 42 42 42 43 43 43 43 43 43 43 43 43 43 43 43 43 44 43 43 43 42 42 42 41 41 40 40 40 40 40 40
26 29 31 35 38 39 39 39 39 39 38 38 40 41 40 41 41 42 42 42 42 42 43 43 43 42 43 43 43 44 44 44 43 43 43 43 42 42 41 41 41 40 41 41
25 28 30 32 35 38 38 39 38 38 39 39 39 39 39 39 39 39 40 40 40 41 41 41 41 42 42 43 44 44 45 45 45 44 44 44 44 43 43 42 42 42 42 42
25 27 29 32 34 37 37 38 37 38 39 38 38 39 37 37 37 38 38 39 39 39 40 40 40 40 40 41 43 44 45 45 45 46 46 45 44 44 44 43 43 43 43 43
24 24 27 30 33 34 36 36 35 36 38 37 38 39 39 37 36 36 37 38 38 39 38 39 39 39 39 40 41 43 44 45 45 45 46 46 45 44 44 44 44 43 44 44
24 23 25 28 30 31 33 35 34 34 35 36 37 38 39 38 37 36 36 37 37 37 38 38 38 38 38 39 40 41 42 43 44 45 46 46 45 45 44 44 44 44 45 44
24 24 25 26 28 30 31 33 33 33 34 34 35 36 36 36 37 37 36 36 37 37 38 38 38 38 38 38 40 41 41 42 42 43 45 45 45 45 45 44 44 45 44 44
23 24 25 26 27 29 30 31 33 34 34 34 34 35 34 35 35 36 37 36 36 37 37 37 38 38 39 39 39 39 40 41 41 42 43 43 44 44 45 45 45 45 44 44
23 22 23 25 27 29 29 29 31 33 33 33 33 34 34 34 34 35 36 36 36 36 37 37 37 37 38 38 38 39 40 40 40 41 42 43 43 44 44 44 45 44 44 44
22 23 22 23 24 27 28 28 29 32 33 33 33 33 33 33 34 34 34 35 35 35 36 36 36 36 36 37 37 37 38 39 40 40 41 42 43 43 43 43 44 44 45 45
21 22 22 23 24 25 26 27 29 31 33 33 33 33 34 33 33 34 34 34 34 34 34 35 35 36 36 36 36 37 37 38 39 39 40 40 41 42 42 42 43 43 44 45
21 23 24 24 24 24 26 27 27 29 31 33 34 33 33 34 34 33 34 34 34 34 34 34 34 35 36 36 37 37 37 38 39 39 40 40 40 41 41 42 42 43 43 44
20 21 23 24 25 25 25 26 27 27 29 31 32 33 34 34 35 34 34 33 33 33 34 34 34 34 35 36 37 38 38 38 39 39 40 40 40 40 40 41 41 41 42 42
21 21 22 23 24 25 25 25 26 27 28 29 30 31 32 33 34 34 34 33 32 32 33 33 33 33 34 35 36 37 37 38 39 39 39 40 40 40 40 40 41 41 41 41
21 22 23 23 23 24 24 25 25 26 28 29 30 30 31 32 32 33 33 33 33 32 32 33 33 33 33 34 35 37 38 38 38 38 38 38 39 40 40 40 40 39 40 40
19 22 23 23 24 25 25 25 25 25 26 26 27 29 30 31 31 32 32 33 33 33 33 33 33 34 34 34 35 35 36 37 37 37 37 38 38 39 39 38 39 39 39 39
18 20 22 23 24 25 26 26 26 25 25 26 26 27 29 30 30 31 31 32 32 32 33 33 33 34 34 34 34 34 34 35 35 36 36 36 37 37 38 38 38 38 38 38
Wind_Direction
226 225 225 224 225 225 226 227 228 228 228 229 229 230 230 229 230 230 230 231 232 233 234 235 236 237 238 240 241 243 245 246 248 249 251 252 254 257 259 262 264 266 268 271
225 225 224 224 223 223 225 226 227 228 228 229 229 229 230 229 230 230 231 232 233 234 235 235 236 237 238 240 242 243 244 246 247 248 250 252 254 256 259 262 264 266 268 271
225 223 221 222 223 223 223 225 225 226 227 228 229 229 229 229 229 230 231 232 233 234 235 236 236 237 238 239 241 243 244 245 247 248 250 251 253 256 259 260 262 265 268 271
222 220 219 219 221 222 223 224 225 226 228 228 230 231 228 229 229 230 230 231 233 234 235 236 236 237 238 239 240 242 243 244 246 247 249 252 253 255 257 260 261 264 267 270
221 218 219 218 219 220 222 223 225 227 229 230 230 232 229 229 230 230 231 231 233 234 235 236 236 237 238 239 240 242 243 244 245 247 249 251 253 255 257 259 262 265 268 271
221 219 219 219 219 220 221 222 225 227 229 231 231 234 233 230 230 231 231 232 233 234 234 235 236 237 238 239 240 241 242 243 245 246 248 251 254 256 258 260 263 265 269 272
220 218 217 217 218 219 220 220 221 225 229 232 231 234 235 232 231 232 232 233 234 235 235 236 236 237 239 240 240 241 242 243 244 246 249 251 253 256 258 261 263 266 269 271
222 219 218 218 218 218 219 220 221 225 229 232 232 234 235 234 233 233 233 233 234 235 236 236 237 237 238 239 240 241 242 243 244 246 248 251 254 256 258 261 264 267 269 271
222 222 221 221 220 219 220 220 221 226 231 233 233 234 235 234 235 234 234 234 235 235 236 237 237 238 239 239 240 241 241 243 245 247 249 252 254 257 259 262 264 267 269 271
223 222 221 221 221 221 221 222 221 224 228 233 235 235 236 234 235 236 236 236 236 237 237 237 238 239 240 241 241 241 242 243 245 247 249 252 255 257 259 262 265 267 270 272
224 224 223 221 219 219 219 219 223 225 228 232 235 236 236 237 236 236 237 237 237 238 237 238 239 240 241 242 242 242 243 245 246 248 250 252 255 258 260 262 264 267 270 273
225 224 223 223 220 220 221 223 225 226 229 232 236 237 236 237 237 237 238 238 238 238 238 239 240 241 242 242 242 242 244 245 247 248 250 252 254 257 259 262 264 267 270 272
227 227 225 223 221 219 221 224 225 227 231 233 235 235 236 238 238 238 238 238 238 239 239 240 241 242 242 242 243 244 245 246 247 248 251 253 254 257 259 262 264 267 270 272
228 228 226 226 223 221 221 222 224 226 229 232 235 236 236 238 239 238 238 238 238 239 240 241 241 242 242 243 244 245 246 246 248 249 251 252 254 256 259 262 264 267 270 272
226 228 227 225 223 223 222 224 224 226 229 232 233 235 235 237 237 238 238 238 239 240 240 241 241 242 242 244 245 247 247 248 248 250 251 252 254 256 259 262 264 267 270 273
228 230 228 225 225 226 227 225 225 227 229 231 233 235 236 237 236 237 238 239 239 240 241 241 242 243 243 246 247 248 248 249 250 251 253 254 256 258 260 262 264 267 270 272
228 228 230 231 232 231 230 228 228 229 231 232 234 236 238 238 237 238 238 240 240 241 242 242 243 244 245 247 248 248 249 249 251 252 254 255 257 259 261 263 265 266 269 271
233 231 234 235 235 234 231 229 230 232 234 235 236 237 239 240 239 239 240 240 241 242 242 243 244 244 246 248 249 249 250 250 251 252 254 256 257 259 261 263 265 266 268 270
237 235 237 236 234 233 231 233 234 235 235 236 238 238 240 241 241 240 240 241 242 243 243 243 245 245 246 248 249 250 250 250 252 253 254 256 258 260 262 263 265 267 269 271
238 235 237 238 237 236 235 237 237 237 238 237 238 239 240 241 242 241 241 242 242 244 244 244 245 246 246 248 249 250 250 250 252 253 255 256 259 260 262 264 266 268 270 272
242 240 240 241 241 240 238 239 240 240 239 239 240 241 241 241 241 241 241 242 243 244 244 245 246 247 248 248 248 249 250 250 252 254 255 257 259 261 263 265 268 270 272 273
245 244 245 244 244 243 241 242 241 241 240 240 241 242 242 241 241 240 241 241 242 243 245 246 246 248 249 249 250 250 250 251 252 254 256 258 259 262 264 266 269 271 272 273
247 245 245 245 245 244 245 245 244 242 241 242 243 243 242 241 240 240 241 241 241 242 244 246 247 248 249 250 250 251 252 253 254 255 257 258 260 262 265 266 268 271 272 273
247 246 245 244 243 243 244 245 245 244 243 243 243 243 243 241 240 240 242 243 242 242 243 245 247 248 250 251 252 253 253 254 255 255 257 259 261 263 265 267 269 271 272 274
250 248 247 246 245 245 244 245 246 246 244 244 244 244 243 242 240 240 241 242 243 244 245 246 248 251 252 253 254 255 256 256 257 257 258 259 262 264 266 268 269 271 272 275
252 250 249 248 248 248 247 247 247 246 245 243 243 244 244 242 241 241 242 242 243 244 246 247 249 250 252 254 255 257 257 257 257 259 260 261 263 265 267 269 271 272 273 274
Height
5609 5616 5623 5633 5640 5648 5655 5661 5667 5674 5679 5685 5691 5697 5704 5710 5716 5722 5728 5733 5739 5744 5749 5754 5759 5763 5767 5771 5775 5778 5781 5784 5787 5790 5792 5794 5796 5798 5799 5800 5801 5802 5802 5803
5600 5608 5619 5625 5631 5638 5645 5651 5658 5665 5670 5676 5683 5689 5695 5701 5708 5714 5720 5725 5731 5736 5741 5747 5751 5756 5760 5764 5767 5771 5774 5777 5780 5783 5785 5787 5789 5791 5793 5794 5795 5796 5796 5796
5594 5605 5610 5615 5622 5629 5636 5644 5651 5657 5662 5667 5674 5680 5686 5693 5700 5705 5711 5717 5723 5728 5734 5739 5743 5748 5752 5756 5760 5763 5767 5770 5773 5775 5778 5780 5782 5784 5786 5787 5789 5789 5790 5790
5586 5594 5600 5607 5614 5621 5629 5637 5643 5649 5653 5659 5666 5671 5679 5685 5691 5697 5704 5709 5715 5720 5726 5731 5735 5740 5744 5748 5752 5755 5759 5762 5765 5768 5771 5773 5776 5778 5779 5780 5781 5782 5783 5783
5580 5587 5592 5600 5608 5615 5623 5629 5635 5641 5646 5651 5657 5662 5670 5676 5682 5690 5696 5702 5707 5712 5717 5722 5727 5731 5736 5740 5744 5747 5751 5754 5757 5760 5763 5766 5768 5770 5772 5773 5774 5775 5776 5776
5574 5580 5586 5594 5602 5608 5615 5622 5628 5633 5637 5642 5650 5654 5661 5669 5676 5683 5689 5694 5699 5704 5709 5714 5718 5723 5727 5731 5735 5739 5742 5746 5749 5752 5755 5758 5761 5762 5764 5766 5767 5768 5768 5768
5567 5573 5580 5587 5594 5600 5607 5614 5620 5624 5628 5634 5643 5646 5654 5662 5669 5675 5681 5686 5691 5696 5701 5705 5710 5715 5719 5723 5727 5731 5734 5738 5741 5744 5747 5750 5753 5755 5756 5758 5759 5759 5760 5760
5562 5568 5574 5580 5588 5594 5600 5607 5614 5619 5623 5629 5635 5639 5648 5655 5661 5667 5672 5678 5683 5687 5692 5697 5702 5706 5711 5714 5718 5722 5726 5729 5733 5736 5739 5742 5744 5746 5748 5749 5750 5751 5752 5752
5558 5564 5570 5576 5582 5588 5594 5600 5608 5613 5617 5622 5627 5633 5640 5646 5652 5659 5664 5669 5674 5679 5684 5689 5693 5697 5702 5706 5709 5713 5717 5721 5724 5727 5730 5733 5735 5737 5739 5741 5742 5742 5743 5743
5554 5559 5564 5569 5575 5581 5588 5595 5600 5605 5610 5615 5621 5627 5633 5639 5645 5650 5656 5661 5665 5670 5675 5680 5684 5689 5693 5697 5700 5704 5708 5712 5715 5718 5721 5724 5726 5728 5730 5731 5733 5734 5734 5734
5550 5555 5559 5564 5568 5575 5582 5588 5593 5598 5604 5609 5614 5622 5626 5631 5637 5642 5647 5652 5657 5662 5666 5671 5675 5680 5684 5687 5691 5695 5698 5702 5706 5709 5712 5715 5717 5719 5721 5722 5723 5724 5725 5725
5545 5550 5554 5559 5565 5570 5576 5581 5587 5593 5598 5603 5608 5617 5619 5624 5629 5634 5639 5644 5648 5653 5658 5662 5666 5670 5674 5678 5682 5685 5689 5692 5696 5699 5702 5705 5708 5710 5711 5713 5714 5715 5715 5715
5541 5545 5549 5553 5559 5563 5568 5574 5580 5586 5592 5597 5602 5610 5612 5616 5621 5626 5631 5636 5640 5645 5649 5654 5658 5661 5665 5669 5672 5676 5679 5683 5686 5690 5693 5695 5698 5700 5702 5703 5704 5705 5705 5705
5537 5541 5545 5549 5553 5558 5563 5569 5574 5579 5584 5589 5595 5601 5605 5610 5614 5619 5623 5628 5632 5637 5641 5645 5649 5652 5656 5660 5663 5666 5670 5673 5677 5680 5682 5685 5688 5690 5692 5693 5694 5694 5695 5695
5533 5537 5540 5544 5548 5553 5558 5563 5569 5573 5578 5583 5588 5592 5598 5603 5607 5611 5616 5620 5624 5628 5633 5636 5640 5644 5648 5651 5654 5657 5660 5663 5667 5670 5672 5675 5677 5679 5681 5682 5683 5684 5684 5684
5528 5532 5536 5540 5544 5548 5552 5557 5562 5566 5571 5576 5580 5586 5590 5595 5600 5604 5608 5612 5616 5620 5624 5628 5632 5635 5639 5642 5645 5648 5651 5654 5657 5659 5662 5664 5667 5669 5670 5672 5672 5673 5674 5674
5525 5529 5533 5537 5540 5543 5547 5552 5556 5561 5565 5570 5574 5580 5583 5587 5592 5596 5600 5604 5608 5612 5615 5619 5623 5626 5629 5632 5635 5638 5641 5644 5647 5649 5652 5654 5656 5658 5659 5660 5661 5662 5663 5663
5522 5525 5528 5531 5535 5538 5544 5546 5550 5555 5559 5563 5567 5572 5576 5580 5584 5588 5592 5596 5600 5603 5607 5611 5614 5617 5620 5623 5626 5629 5631 5634 5637 5639 5642 5644 5645 5647 5648 5649 5650 5651 5652 5652
5518 5520 5523 5526 5529 5532 5537 5541 5544 5548 5553 5556 5560 5565 5568 5572 5576 5580 5584 5587 5591 5595 5598 5602 5605 5608 5611 5614 5616 5619 5622 5624 5627 5629 5631 5633 5635 5636 5637 5639 5639 5640 5640 5640
5514 5516 5519 5521 5524 5527 5533 5535 5537 5542 5545 5549 5553 5557 5561 5564 5569 5573 5576 5579 5583 5586 5590 5593 5596 5599 5602 5605 5607 5610 5612 5615 5617 5619 5621 5622 5624 5625 5627 5628 5628 5629 5629 5629
5510 5512 5514 5517 5519 5522 5526 5529 5532 5537 5540 5542 5545 5549 5553 5556 5561 5565 5568 5571 5574 5578 5581 5584 5587 5590 5593 5595 5598 5600 5603 5605 5607 5609 5611 5612 5613 5615 5616 5617 5617 5618 5618 5617
5506 5508 5510 5512 5514 5519 5520 5523 5526 5529 5532 5535 5538 5541 5545 5548 5552 5556 5559 5563 5566 5569 5572 5575 5578 5581 5584 5586 5588 5591 5593 5595 5597 5599 5600 5602 5603 5604 5605 5606 5606 5606 5606 5606
5501 5504 5505 5508 5512 5513 5514 5516 5519 5522 5525 5528 5531 5533 5537 5540 5544 5547 5551 5554 5558 5561 5564 5567 5569 5572 5574 5577 5579 5581 5583 5585 5587 5589 5590 5591 5593 5594 5594 5595 5595 5595 5595 5595
5496 5498 5500 5502 5504 5506 5508 5510 5513 5515 5517 5520 5523 5526 5529 5532 5536 5539 5543 5546 5549 5552 5555 5558 5561 5563 5565 5567 5569 5571 5573 5575 5576 5578 5580 5581 5582 5583 5584 5584 5584 5584 5584 5584
5491 5492 5494 5496 5498 5500 5502 5504 5506 5508 5510 5513 5515 5518 5521 5525 5528 5531 5534 5537 5541 5544 5547 5549 5552 5554 5556 5558 5560 5562 5563 5565 5566 5568 5569 5570 5571 5572 5573 5573 5573 5573 5573 5573
5486 5487 5488 5490 5492 5494 5496 5498 5500 5502 5504 5506 5508 5511 5514 5516 5520 5523 5526 5529 5532 5535 5538 5540 5543 5545 5547 5549 5550 5552 5553 5555 5556 5558 5559 5560 5561 5562 5562 5562 5562 5562 5562 5562